Tarbes, France

4:10 PM CET on February 11, 2016 (GMT +0100)
Lourdes-Pyrenees

Weather History for LFBT - December, 2013

Change the Weather History Date:

Friday, December 13, 2013

  Actual Average Record
Temperature  
Mean Temperature 45 °F -  
Max Temperature 60 °F 49 °F 60 °F (1998)
Min Temperature 30 °F 33 °F 23 °F (2007)
Degree Days  
Heating Degree Days 20    
Moisture  
Dew Point 29 °F    
Average Humidity 56    
Maximum Humidity 87    
Minimum Humidity 18    
Precipitation  
Precipitation 0.00 in - - ()
Sea Level Pressure  
Sea Level Pressure 30.28 in    
Wind  
Wind Speed 6 mph ()    
Max Wind Speed 17 mph    
Max Gust Speed -    
Visibility 6.5 miles    
Events Rain    
Averages and records for this station are not official NWS values.
T = Trace of Precipitation, MM = Missing Value Source: Averaged Metar Reports

Daily Weather History Graph

Daily Weather History Graph

Search for Another Location

Airport or City:

Trip Planner

Search our weather history database for the weather conditions in past years. The results will help you decide how hot, cold, wet, or windy it might be!

Date:

Astronomy

Dec. 13, 2013 Rise Set
Actual Time 8:23 AM CET 5:24 PM CET
Civil Twilight 7:51 AM CET 5:57 PM CET
Nautical Twilight 7:15 AM CET 6:33 PM CET
Astronomical Twilight 6:40 AM CET 7:07 PM CET
Moon 3:02 PM CET (12/13) 4:26 AM CET (12/13)
Length of Visible Light 10h 06m
Length of Day
9h 01m
Waxing Gibbous, 86% of the Moon is Illuminated
Dec 13
Waxing Gibbous
Dec 17
Full
Dec 25
Last Quarter
Jan 1
New
Jan 8
First Quarter

Hourly Weather History & Observations

Time (CET) Temp. Windchill Dew Point Humidity Pressure Visibility Wind Dir Wind Speed Gust Speed Precip Events Conditions
12:00 AM 35.6 °F 30.7 °F 26.6 °F 70% 30.27 in 6.2 mi South 5.8 mph - N/A   Unknown
12:30 AM 39.2 °F 32.5 °F 26.6 °F 61% 30.27 in 6.2 mi South 10.4 mph - N/A   Unknown
1:00 AM 37 °F - 26 °F 53% 30.34 in 31 mi South 8.1 mph - -   Clear
1:00 AM 37.4 °F 31.4 °F 26.6 °F 65% 30.27 in 6.2 mi South 8.1 mph - N/A   Unknown
1:30 AM 39.2 °F 33.0 °F 26.6 °F 61% 30.27 in 6.2 mi SSE 9.2 mph - N/A   Unknown
2:00 AM 35.6 °F 29.2 °F 24.8 °F 65% 30.24 in 6.2 mi SSE 8.1 mph - N/A   Unknown
2:30 AM 33.8 °F 27.7 °F 24.8 °F 70% 30.24 in 6.2 mi South 6.9 mph - N/A   Unknown
3:00 AM 33.8 °F 28.6 °F 24.8 °F 70% 30.24 in 6.2 mi South 5.8 mph - N/A   Unknown
3:30 AM 33.8 °F 27.0 °F 24.8 °F 70% 30.24 in 6.2 mi South 8.1 mph - N/A   Unknown
4:00 AM 32 °F - 24 °F 62% 30.31 in 37 mi South 5.8 mph - -   Clear
4:00 AM 32.0 °F 26.4 °F 24.8 °F 75% 30.24 in 6.2 mi South 5.8 mph - N/A   Unknown
4:30 AM 33.8 °F 27.0 °F 24.8 °F 70% 30.24 in 6.2 mi South 8.1 mph - N/A   Unknown
5:00 AM 35.6 °F 28.0 °F 24.8 °F 65% 30.24 in 6.2 mi South 10.4 mph - N/A   Unknown
5:30 AM 35.6 °F 29.2 °F 23.0 °F 60% 30.24 in 6.2 mi South 8.1 mph - N/A   Unknown
6:00 AM 35.6 °F 29.2 °F 23.0 °F 60% 30.24 in 6.2 mi South 8.1 mph - N/A   Unknown
6:30 AM 35.6 °F 28.6 °F 23.0 °F 60% 30.21 in 6.2 mi South 9.2 mph - N/A   Unknown
7:00 AM 33 °F - 23 °F 55% 30.28 in 37 mi South 6.9 mph - -   Clear
7:00 AM 32.0 °F 25.6 °F 23.0 °F 69% 30.21 in 6.2 mi South 6.9 mph - N/A   Unknown
7:30 AM 32.0 °F 26.4 °F 23.0 °F 69% 30.21 in 6.2 mi South 5.8 mph - N/A   Unknown
8:00 AM 30.2 °F 25.4 °F 23.0 °F 75% 30.21 in 6.2 mi South 4.6 mph - N/A   Unknown
8:30 AM 30.2 °F 23.4 °F 23.0 °F 75% 30.24 in 6.2 mi South 6.9 mph - N/A   Unknown
9:00 AM 35.6 °F 29.9 °F 24.8 °F 65% 30.24 in 6.2 mi SSE 6.9 mph - N/A   Unknown
9:30 AM 39.2 °F 33.6 °F 24.8 °F 56% 30.27 in 6.2 mi SSE 8.1 mph - N/A   Unknown
10:00 AM 42 °F - 26 °F 41% 30.30 in 25 mi SSE 6.9 mph - -   Clear
10:00 AM 41.0 °F 36.4 °F 26.6 °F 57% 30.24 in 6.2 mi SSE 6.9 mph - N/A   Unknown
10:30 AM 46.4 °F 43.5 °F 28.4 °F 50% 30.27 in 6.2 mi SSE 5.8 mph - N/A   Unknown
11:00 AM 50.0 °F - 30.2 °F 47% 30.27 in 6.2 mi Variable 3.5 mph - N/A   Unknown
11:30 AM 55.4 °F - 28.4 °F 36% 30.27 in 6.2 mi Calm Calm - N/A   Unknown
12:00 PM 57.2 °F - 30.2 °F 36% 30.24 in 6.2 mi Calm Calm - N/A   Unknown
12:30 PM 57.2 °F - 28.4 °F 33% 30.24 in 6.2 mi Variable 1.2 mph - N/A   Unknown
1:00 PM 59 °F - 27 °F 18% 30.24 in 12 mi East 1.2 mph - -   Clear
1:00 PM 59.0 °F - 26.6 °F 29% 30.24 in 6.2 mi Variable 1.2 mph - N/A   Unknown
1:30 PM 60.8 °F - 26.6 °F 27% 30.21 in 6.2 mi Variable 1.2 mph - N/A   Unknown
2:00 PM 60.8 °F - 26.6 °F 27% 30.21 in 6.2 mi Variable 3.5 mph - N/A   Unknown
2:30 PM 57.2 °F - 30.2 °F 36% 30.21 in 6.2 mi West 5.8 mph - N/A   Unknown
3:00 PM 55.4 °F - 28.4 °F 36% 30.21 in 6.2 mi West 5.8 mph - N/A   Unknown
3:30 PM 55.4 °F - 26.6 °F 33% 30.21 in 6.2 mi West 3.5 mph - N/A   Unknown
4:00 PM 54 °F - 29 °F 26% 30.25 in 34 mi West 3.5 mph - -   Clear
4:00 PM 53.6 °F - 28.4 °F 38% 30.24 in 6.2 mi West 3.5 mph - N/A   Unknown
4:30 PM 53.6 °F - 26.6 °F 35% 30.24 in 6.2 mi Variable 3.5 mph - N/A   Unknown
5:00 PM 51.8 °F - 32.0 °F 47% 30.24 in 6.2 mi Calm Calm - N/A   Overcast
5:30 PM 48.2 °F - 35.6 °F 62% 30.27 in 6.2 mi Variable 3.5 mph - N/A   Overcast
6:00 PM 48.2 °F - 35.6 °F 62% 30.27 in 6.2 mi Variable 2.3 mph - N/A   Overcast
6:30 PM 48.2 °F - 33.8 °F 58% 30.30 in 6.2 mi SSE 2.3 mph - N/A   Overcast
7:00 PM 48 °F - 33 °F 45% 30.34 in 12 mi SSW 4.6 mph - -   Clear
7:00 PM 48.2 °F - 33.8 °F 58% 30.30 in 6.2 mi SSW 4.6 mph - N/A   Overcast
7:30 PM 51.8 °F - 30.2 °F 44% 30.33 in 6.2 mi WSW 6.9 mph - N/A   Overcast
8:00 PM 51.8 °F - 30.2 °F 44% 30.36 in 6.2 mi West 15.0 mph - N/A   Overcast
8:30 PM 50.0 °F - 35.6 °F 58% 30.36 in 6.2 mi West 17.3 mph - N/A   Overcast
9:00 PM 48.2 °F - 37.4 °F 66% 30.39 in 6.2 mi West 13.8 mph - N/A Rain Light Rain
9:30 PM 48.2 °F - 39.2 °F 71% 30.39 in 6.2 mi West 6.9 mph - N/A Rain Light Rain
10:00 PM 46 °F - 40 °F 74% 30.44 in 9 mi SW 5.8 mph - - Rain Light Rain
10:00 PM 46.4 °F 43.5 °F 41.0 °F 81% 30.39 in 6.2 mi SW 5.8 mph - N/A Rain Light Rain
10:30 PM 46.4 °F 42.9 °F 41.0 °F 81% 30.39 in 6.2 mi South 6.9 mph - N/A Rain Light Rain
11:00 PM 44.6 °F 41.4 °F 41.0 °F 87% 30.39 in 6.2 mi South 5.8 mph - N/A Rain Light Rain
11:30 PM 44.6 °F - 41.0 °F 87% 30.39 in 6.2 mi Variable 2.3 mph - N/A   Overcast